• In Uzbekistan
  • List of Countries
  • For 7 days
  • Water Temperature
  • Satellite Maps
  • Weather Map
  • Weather Widgets
  • user-avatar
    Login

    Hourly Weather Salva

    Today, 19 January, Friday

    Time Temperature Precipitation Wind Pressure Humidity
    00:00 +16°C° 0 mm 1 mps 762 mmHg 57%
    01:00 +16°C° 0 mm 2 mps 762 mmHg 56%
    02:00 +16°C° 0 mm 2 mps 762 mmHg 56%
    03:00 +15°C° 0 mm 2 mps 762 mmHg 56%
    04:00 +15°C° 0 mm 2 mps 762 mmHg 57%
    05:00 +15°C° 0 mm 2 mps 762 mmHg 57%
    06:00 +15°C° 0 mm 2 mps 763 mmHg 57%
    07:00 +16°C° 0 mm 3 mps 763 mmHg 52%
    08:00 +18°C° 0 mm 3 mps 763 mmHg 48%
    09:00 +20°C° 0 mm 3 mps 763 mmHg 38%
    10:00 +22°C° 0 mm 3 mps 763 mmHg 35%
    11:00 +23°C° 0 mm 4 mps 763 mmHg 32%
    12:00 +26°C° 0 mm 4 mps 763 mmHg 29%
    13:00 +26°C° 0 mm 4 mps 762 mmHg 28%
    14:00 +27°C° 0 mm 4 mps 762 mmHg 27%
    15:00 +27°C° 0 mm 4 mps 761 mmHg 25%
    16:00 +26°C° 0 mm 4 mps 761 mmHg 33%
    17:00 +23°C° 0 mm 4 mps 762 mmHg 40%
    18:00 +21°C° 0 mm 4 mps 762 mmHg 48%
    19:00 +20°C° 0 mm 4 mps 762 mmHg 54%
    20:00 +20°C° 0 mm 4 mps 762 mmHg 61%
    21:00 +19°C° 0 mm 4 mps 763 mmHg 68%
    22:00 +19°C° 0 mm 4 mps 763 mmHg 70%
    23:00 +19°C° 0 mm 4 mps 763 mmHg 72%

    Tomorrow, 20 January, Saturday

    Time Temperature Precipitation Wind Pressure Humidity
    00:00 +18°C° 0 mm 4 mps 763 mmHg 74%
    01:00 +18°C° 0 mm 4 mps 762 mmHg 75%
    02:00 +18°C° 0 mm 4 mps 762 mmHg 76%
    03:00 +18°C° 0 mm 4 mps 762 mmHg 77%
    04:00 +18°C° 0 mm 4 mps 762 mmHg 74%
    05:00 +17°C° 0 mm 4 mps 762 mmHg 72%
    06:00 +17°C° 0 mm 4 mps 762 mmHg 69%
    07:00 +19°C° 0 mm 5 mps 763 mmHg 60%
    08:00 +20°C° 0 mm 5 mps 763 mmHg 50%
    09:00 +21°C° 0 mm 5 mps 764 mmHg 40%
    10:00 +23°C° 0 mm 5 mps 764 mmHg 34%
    11:00 +25°C° 0 mm 4 mps 763 mmHg 29%
    12:00 +26°C° 0 mm 4 mps 763 mmHg 23%
    13:00 +26°C° 0 mm 5 mps 763 mmHg 22%
    14:00 +26°C° 0 mm 6 mps 762 mmHg 21%
    15:00 +26°C° 0 mm 6 mps 762 mmHg 20%
    16:00 +23°C° 0 mm 6 mps 763 mmHg 29%
    17:00 +22°C° 0 mm 6 mps 763 mmHg 38%
    18:00 +20°C° 0 mm 6 mps 763 mmHg 47%
    19:00 +19°C° 0 mm 6 mps 764 mmHg 49%
    20:00 +19°C° 0 mm 6 mps 764 mmHg 50%
    21:00 +17°C° 0 mm 6 mps 765 mmHg 51%
    22:00 +17°C° 0 mm 5 mps 765 mmHg 50%
    23:00 +16°C° 0 mm 5 mps 765 mmHg 49%

    Day after tomorrow, 21 January, Sunday

    Time Temperature Precipitation Wind Pressure Humidity
    00:00 +16°C° 0 mm 5 mps 765 mmHg 48%
    01:00 +15°C° 0 mm 5 mps 765 mmHg 46%
    02:00 +15°C° 0 mm 6 mps 765 mmHg 43%
    03:00 +15°C° 0 mm 6 mps 765 mmHg 41%
    04:00 +14°C° 0 mm 6 mps 765 mmHg 42%
    05:00 +14°C° 0 mm 6 mps 766 mmHg 44%
    06:00 +14°C° 0 mm 6 mps 766 mmHg 45%
    07:00 +15°C° 0 mm 6 mps 766 mmHg 43%
    08:00 +16°C° 0 mm 7 mps 767 mmHg 41%
    09:00 +17°C° 0 mm 8 mps 767 mmHg 39%
    10:00 +18°C° 0 mm 8 mps 767 mmHg 37%
    11:00 +20°C° 0 mm 8 mps 766 mmHg 36%
    12:00 +21°C° 0 mm 8 mps 766 mmHg 35%
    13:00 +21°C° 0 mm 8 mps 765 mmHg 35%
    14:00 +21°C° 0 mm 8 mps 765 mmHg 36%
    15:00 +21°C° 0 mm 8 mps 764 mmHg 37%
    16:00 +20°C° 0 mm 7 mps 764 mmHg 41%
    17:00 +19°C° 0 mm 6 mps 765 mmHg 45%
    18:00 +17°C° 0 mm 5 mps 765 mmHg 49%
    19:00 +16°C° 0 mm 5 mps 765 mmHg 50%
    20:00 +16°C° 0 mm 5 mps 765 mmHg 52%
    21:00 +15°C° 0 mm 5 mps 766 mmHg 53%
    22:00 +15°C° 0 mm 5 mps 765 mmHg 53%
    23:00 +14°C° 0 mm 5 mps 765 mmHg 54%

    22 January, Monday

    Time Temperature Precipitation Wind Pressure Humidity
    00:00 +14°C° 0 mm 5 mps 765 mmHg 55%
    01:00 +14°C° 0 mm 5 mps 765 mmHg 55%
    02:00 +13°C° 0 mm 5 mps 764 mmHg 56%
    03:00 +13°C° 0 mm 5 mps 764 mmHg 56%
    04:00 +13°C° 0 mm 5 mps 764 mmHg 57%
    05:00 +13°C° 0 mm 5 mps 764 mmHg 57%
    06:00 +13°C° 0 mm 5 mps 764 mmHg 58%
    07:00 +14°C° 0 mm 5 mps 765 mmHg 53%
    08:00 +15°C° 0 mm 5 mps 765 mmHg 49%
    09:00 +17°C° 0 mm 5 mps 765 mmHg 44%
    10:00 +19°C° 0 mm 5 mps 765 mmHg 41%
    11:00 +20°C° 0 mm 5 mps 764 mmHg 38%
    12:00 +22°C° 0 mm 5 mps 763 mmHg 35%
    13:00 +22°C° 0 mm 4 mps 763 mmHg 35%
    14:00 +22°C° 0 mm 4 mps 762 mmHg 35%
    15:00 +22°C° 0 mm 4 mps 762 mmHg 34%
    16:00 +21°C° 0 mm 4 mps 762 mmHg 40%
    17:00 +20°C° 0 mm 3 mps 762 mmHg 47%
    18:00 +18°C° 0 mm 3 mps 762 mmHg 53%
    19:00 +18°C° 0 mm 3 mps 763 mmHg 57%
    20:00 +17°C° 0 mm 2 mps 763 mmHg 62%
    21:00 +16°C° 0 mm 2 mps 763 mmHg 66%
    22:00 +15°C° 0 mm 1 mps 763 mmHg 69%
    23:00 +15°C° 0 mm 1 mps 763 mmHg 71%

    23 January, Tuesday

    Time Temperature Precipitation Wind Pressure Humidity
    00:00 +14°C° 0 mm 1 mps 762 mmHg 74%
    01:00 +12°C° 0 mm 0 mps 762 mmHg 75%
    02:00 +12°C° 0 mm 0 mps 762 mmHg 76%
    03:00 +12°C° 0 mm 0 mps 762 mmHg 78%
    04:00 +13°C° 0 mm 1 mps 762 mmHg 76%
    05:00 +12°C° 0 mm 1 mps 762 mmHg 75%
    06:00 +12°C° 0 mm 1 mps 762 mmHg 73%
    07:00 +15°C° 0 mm 2 mps 762 mmHg 63%
    08:00 +17°C° 0 mm 2 mps 763 mmHg 52%
    09:00 +19°C° 0 mm 2 mps 763 mmHg 41%
    10:00 +20°C° 0 mm 3 mps 763 mmHg 34%
    11:00 +22°C° 0 mm 3 mps 762 mmHg 27%
    12:00 +25°C° 0 mm 3 mps 761 mmHg 20%
    13:00 +25°C° 0 mm 3 mps 761 mmHg 18%
    14:00 +26°C° 0 mm 3 mps 760 mmHg 16%
    15:00 +27°C° 0 mm 3 mps 760 mmHg 14%
    16:00 +25°C° 0 mm 3 mps 760 mmHg 17%
    17:00 +22°C° 0 mm 3 mps 760 mmHg 19%
    18:00 +21°C° 0 mm 3 mps 760 mmHg 22%
    19:00 +20°C° 0 mm 3 mps 761 mmHg 28%
    20:00 +19°C° 0 mm 3 mps 761 mmHg 33%
    21:00 +19°C° 0 mm 4 mps 761 mmHg 39%
    22:00 +19°C° 0 mm 4 mps 761 mmHg 41%
    23:00 +18°C° 0 mm 4 mps 761 mmHg 43%

    24 January, Wednesday

    Time Temperature Precipitation Wind Pressure Humidity
    00:00 +18°C° 0 mm 4 mps 760 mmHg 45%
    01:00 +18°C° 0 mm 4 mps 760 mmHg 42%
    02:00 +17°C° 0 mm 3 mps 760 mmHg 39%
    03:00 +17°C° 0 mm 3 mps 760 mmHg 37%
    04:00 +17°C° 0 mm 3 mps 761 mmHg 34%
    05:00 +16°C° 0 mm 2 mps 761 mmHg 31%
    06:00 +15°C° 0 mm 2 mps 761 mmHg 28%
    07:00 +17°C° 0 mm 2 mps 762 mmHg 24%
    08:00 +19°C° 0 mm 3 mps 763 mmHg 19%
    09:00 +21°C° 0 mm 3 mps 763 mmHg 14%
    10:00 +24°C° 0 mm 3 mps 763 mmHg 13%
    11:00 +26°C° 0 mm 3 mps 762 mmHg 11%
    12:00 +27°C° 0 mm 3 mps 762 mmHg 10%
    13:00 +28°C° 0 mm 3 mps 761 mmHg 11%
    14:00 +28°C° 0 mm 3 mps 761 mmHg 12%
    15:00 +29°C° 0 mm 3 mps 761 mmHg 12%
    16:00 +27°C° 0 mm 3 mps 761 mmHg 18%
    17:00 +25°C° 0 mm 3 mps 761 mmHg 23%
    18:00 +22°C° 0 mm 4 mps 762 mmHg 28%
    19:00 +21°C° 0 mm 4 mps 762 mmHg 34%
    20:00 +20°C° 0 mm 4 mps 762 mmHg 40%
    21:00 +20°C° 0 mm 4 mps 763 mmHg 45%
    22:00 +19°C° 0 mm 4 mps 762 mmHg 51%
    23:00 +19°C° 0 mm 4 mps 762 mmHg 57%
    Show more